[[{"header":{"parameterUnit":"m.s-1","parameterCategory":1,"la1":30.2991,"la2":30.254,"lo1":-89.0895,"lo2":-89.0444,"dy":0.0017,"dx":0.0017,"nx":28,"ny":28,"refTime":"2025-03-06T09:00:00:Z","depth":0,"parameterNumber":2,"parameterNumberName":"U-component_of_WINDS"},"data":[0,0,0,0,0,0,0,0,0,0,0,0,0,0,0,0,0,0,0,0,0,0,0,0,0,0,0,0,0,0,0,0,0,0,0,0,0,0,0,0,0,0,0,0,0,0,0,0,0,0,0,0,0,0,0,0,0,0,1.1809,1.181,0,1.1852,1.1852,1.1853,1.1855,1.1855,1.1854,1.1854,1.1897,1.1898,1.19,0,0,0,0,0,0,0,0,0,0,0,0,0,1.173,1.1732,1.1809,1.181,1.181,1.1852,1.1852,1.1853,1.1855,1.1855,1.1854,1.1854,1.1896,1.1898,1.19,0,0,0,0,0,0,0,0,0,0,0,0,0,1.1768,1.1732,1.1809,1.1817,1.1818,1.1852,1.1852,1.1853,1.1856,1.1855,1.1854,1.1853,1.1895,1.1898,1.19,1.1929,0,0,1.1907,1.1908,0,0,0,0,0,0,0,0,1.1766,1.1771,1.1815,1.1816,1.1818,1.1848,1.184,1.1879,1.1856,1.1841,1.1854,1.1853,1.1881,1.1884,1.1894,1.1931,1.1933,1.1908,1.1909,1.191,1.1911,0,0,0,0,0,0,0,1.1763,1.1769,1.1826,1.1816,1.1817,1.1818,1.1822,1.1847,1.1864,1.1842,1.1843,1.1848,1.1881,1.1892,1.1895,1.1934,1.1907,1.191,1.1911,1.1912,1.1998,1.1999,0,0,0,0,0,0,1.1759,1.1767,1.1825,1.1827,1.1789,1.182,1.1825,1.1839,1.1864,1.1867,1.1848,1.1848,1.1888,1.1892,1.1896,1.1932,1.191,1.1912,1.1914,1.1997,1.1998,1.1999,0,0,0,0,0,0,1.1757,1.1764,1.1823,1.1797,1.1805,1.1822,1.1837,1.184,1.185,1.1869,1.1872,1.1856,1.1887,1.1893,1.1921,1.1934,1.1913,1.1915,1.1996,1.1997,1.1998,1.2004,0,0,0,0,0,0,1.1755,1.1764,1.1775,1.1797,1.1806,1.1847,1.1838,1.1841,1.1854,1.1854,1.1876,1.1879,1.1887,1.1918,1.1924,1.1937,1.1917,1.1995,1.1996,1.1998,1.2003,1.2006,1.2008,0,0,0,0,0,1.1752,1.1775,1.1775,1.1782,1.1821,1.1848,1.1853,1.1862,1.1855,1.1867,1.1879,1.1879,1.1932,1.1921,1.1927,1.1941,1.1994,1.1996,1.1998,1.2002,1.2005,1.2008,0,0,0,0,0,0,1.1752,1.1778,1.1779,1.1809,1.1827,1.1848,1.1863,1.1865,1.1884,1.1883,1.1893,1.1898,1.1926,1.1937,1.1924,1.1971,1.1962,1.1965,1.1963,1.1966,1.1969,1.1965,1.1919,0,0,0,0,0,1.1756,1.1777,1.1797,1.1822,1.1831,1.1845,1.1858,1.1863,1.1881,1.1889,1.1903,1.192,1.1941,1.1954,1.1974,1.2005,1.201,1.2018,1.2021,1.2022,1.2025,1.2042,1.2046,1.2005,1.2005,1.2005,0,0,1.1764,1.178,1.1792,1.1823,1.1837,1.1857,1.1852,1.1874,1.1889,1.1892,1.1919,1.1931,1.1951,1.1981,1.1994,1.199,1.2038,1.2025,1.2026,1.2028,1.2045,1.2048,1.2052,1.2006,1.2006,1.2006,0,0,1.1788,1.1802,1.1825,1.1839,1.1861,1.1871,1.1876,1.1898,1.1906,1.1934,1.1936,1.1955,1.199,1.2005,1.2017,1.2048,1.2048,1.2054,1.2066,1.2083,1.2086,1.2089,1.21,1.2104,1.2057,1.2057,1.2057,0,1.1794,1.1826,1.1836,1.1858,1.1872,1.1876,1.1899,1.1912,1.1939,1.1948,1.1943,1.1988,1.2002,1.2035,1.2043,1.2053,1.2059,1.2051,1.2085,1.2088,1.2091,1.2101,1.2105,1.2057,1.2057,1.2057,1.2057,0,1.1833,1.1855,1.187,1.1897,1.1912,1.1934,1.1948,1.1962,1.1966,1.1977,1.2005,1.2023,1.2046,1.2055,1.2059,1.2089,1.2086,1.2083,1.2074,1.2095,1.2105,1.2109,1.2058,1.2058,1.2058,1.2057,0,0,1.1857,1.189,1.1895,1.1907,1.1932,1.1949,1.1972,1.1996,1.2008,1.2027,1.2046,1.2076,1.2074,1.2088,1.2094,1.2109,1.2132,1.2104,1.2105,1.2109,1.2166,1.2168,1.2172,1.2133,1.2134,1.2135,1.2164,0,1.1884,1.1925,1.1935,1.197,1.199,1.1995,1.2015,1.2032,1.2043,1.2062,1.2073,1.2095,1.209,1.2099,1.2114,1.2126,1.2144,1.2124,1.2151,1.2152,1.2145,1.2177,1.2179,1.2206,1.2168,1.2169,1.217,0,1.192,1.194,1.1977,1.2,1.2009,1.2027,1.2049,1.2068,1.2088,1.2094,1.211,1.2115,1.2139,1.213,1.2163,1.215,1.2161,1.2169,1.2171,1.2173,1.2161,1.218,1.2215,1.2219,1.2176,1.2175,1.2175,0,1.1934,1.197,1.1997,1.2008,1.2035,1.2047,1.2059,1.2078,1.2092,1.2112,1.2121,1.2144,1.2156,1.2174,1.2185,1.2177,1.2217,1.2208,1.2223,1.2223,1.2231,1.223,1.2267,1.2239,1.2239,1.2239,1.2239,0,1.1962,1.1985,1.2004,1.202,1.2046,1.2057,1.2082,1.2094,1.2111,1.213,1.2136,1.2154,1.2168,1.2187,1.2196,1.2222,1.2228,1.2234,1.2236,1.2233,1.2232,1.224,1.2238,1.224,1.224,1.224,1.2239,0,1.1981,1.1995,1.2025,1.2049,1.2055,1.2073,1.2093,1.2109,1.2121,1.2144,1.2151,1.2168,1.2192,1.2205,1.2234,1.224,1.2269,1.2271,1.2262,1.2263,1.2277,1.2275,1.232,1.2327,1.2295,1.2295,1.2296,0,1.1998,1.2016,1.2042,1.2055,1.2067,1.2088,1.2103,1.2115,1.213,1.2155,1.2168,1.2192,1.2212,1.2249,1.2264,1.2287,1.2288,1.2303,1.2292,1.2288,1.2288,1.2287,1.2288,1.2304,1.2304,1.2305,1.2305,0,1.2027,1.2033,1.2053,1.2077,1.2094,1.2113,1.2131,1.2142,1.2157,1.2174,1.2198,1.2213,1.2244,1.2267,1.2292,1.2304,1.2307,1.2308,1.2313,1.231,1.2304,1.2307,1.2267,1.2307,1.2307,1.2307,1.2306,1.2306,1.2045,1.2061,1.2081,1.2104,1.212,1.2138,1.2154,1.2168,1.2188,1.2214,1.2221,1.2246,1.2266,1.2299,1.2312,1.2332,1.233,1.2336,1.2338,1.2339,1.2339,1.2302,1.2337,1.2337,1.2337,1.2337,1.2337,0,1.2073,1.2087,1.2108,1.2134,1.2152,1.2155,1.2176,1.2191,1.2213,1.2232,1.2252,1.228,1.2303,1.2321,1.2344,1.2357,1.2359,1.2363,1.2362,1.2365,1.2341,1.2334,1.2361,1.2361,1.2361,1.2361,1.2361,1.2361,1.209,1.2117,1.2126,1.2161,1.2174,1.22,1.2212,1.2228,1.2243,1.2274,1.2294,1.2305,1.2324,1.2349,1.2371,1.2375,1.2384,1.2387,1.2392,1.2369,1.2366,1.2364,1.2358,1.2389,1.2389,1.2414,1.2414,1.2415]},{"header":{"parameterUnit":"m.s-1","parameterCategory":1,"la1":30.2991,"la2":30.254,"lo1":-89.0895,"lo2":-89.0444,"dy":0.0017,"dx":0.0017,"nx":28,"ny":28,"refTime":"2025-03-06T09:00:00:Z","depth":0,"parameterNumber":3,"parameterNumberName":"V-component_of_WINDS"},"data":[0,0,0,0,0,0,0,0,0,0,0,0,0,0,0,0,0,0,0,0,0,0,0,0,0,0,0,0,0,0,0,0,0,0,0,0,0,0,0,0,0,0,0,0,0,0,0,0,0,0,0,0,0,0,0,0,0,0,-4.6824,-4.6826,0,-4.6942,-4.6944,-4.6945,-4.6944,-4.6943,-4.6941,-4.694,-4.7057,-4.7061,-4.7066,0,0,0,0,0,0,0,0,0,0,0,0,0,-4.6596,-4.66,-4.6824,-4.6826,-4.6827,-4.6942,-4.6944,-4.6945,-4.6944,-4.6943,-4.6941,-4.6939,-4.7055,-4.7061,-4.7066,0,0,0,0,0,0,0,0,0,0,0,0,0,-4.6703,-4.6602,-4.6824,-4.6841,-4.6843,-4.6942,-4.6944,-4.6946,-4.6945,-4.6943,-4.694,-4.6938,-4.7053,-4.706,-4.7067,-4.7155,0,0,-4.7088,-4.7091,0,0,0,0,0,0,0,0,-4.6697,-4.6711,-4.6837,-4.684,-4.6843,-4.6926,-4.6906,-4.7016,-4.6945,-4.6906,-4.694,-4.6937,-4.7015,-4.7025,-4.7052,-4.7161,-4.7166,-4.7088,-4.7092,-4.7095,-4.7097,0,0,0,0,0,0,0,-4.6689,-4.6706,-4.6871,-4.6839,-4.6842,-4.6842,-4.6854,-4.6927,-4.6972,-4.6909,-4.691,-4.6924,-4.7016,-4.7045,-4.7055,-4.7167,-4.7088,-4.7094,-4.7098,-4.7101,-4.7358,-4.736,0,0,0,0,0,0,-4.6679,-4.67,-4.6867,-4.6874,-4.6763,-4.6848,-4.6862,-4.6902,-4.6971,-4.698,-4.6926,-4.6923,-4.7035,-4.7047,-4.7059,-4.7169,-4.7095,-4.7102,-4.7106,-4.7355,-4.7358,-4.7361,0,0,0,0,0,0,-4.6674,-4.6694,-4.6862,-4.6787,-4.6809,-4.6854,-4.6899,-4.6905,-4.6935,-4.6984,-4.6991,-4.6947,-4.7033,-4.7049,-4.7132,-4.7173,-4.7105,-4.7111,-4.7352,-4.7356,-4.736,-4.7389,0,0,0,0,0,0,-4.6667,-4.6692,-4.6726,-4.6788,-4.6813,-4.6935,-4.6901,-4.6909,-4.6947,-4.6945,-4.7006,-4.7014,-4.7033,-4.7122,-4.7139,-4.7181,-4.7116,-4.7348,-4.7354,-4.7358,-4.7385,-4.7394,-4.7401,0,0,0,0,0,-4.6659,-4.6728,-4.6728,-4.6748,-4.6857,-4.6937,-4.6951,-4.6972,-4.695,-4.6985,-4.7017,-4.7012,-4.7166,-4.7131,-4.715,-4.7194,-4.7346,-4.7352,-4.7358,-4.7381,-4.7392,-4.7401,0,0,0,0,0,0,-4.6668,-4.6737,-4.6737,-4.6828,-4.6877,-4.6937,-4.6981,-4.6983,-4.7038,-4.7033,-4.7056,-4.707,-4.7154,-4.7182,-4.7142,-4.7285,-4.7253,-4.7263,-4.7264,-4.7275,-4.7283,-4.7275,-4.7122,0,0,0,0,0,-4.6681,-4.6741,-4.6797,-4.6873,-4.6897,-4.6935,-4.6971,-4.6983,-4.7034,-4.7054,-4.7092,-4.7141,-4.72,-4.7239,-4.7296,-4.7389,-4.7403,-4.7429,-4.7437,-4.7444,-4.7453,-4.7506,-4.7519,-4.7381,-4.7381,-4.7381,0,0,-4.6708,-4.6753,-4.6789,-4.6876,-4.6915,-4.6977,-4.6952,-4.7018,-4.7064,-4.7064,-4.7146,-4.7175,-4.7231,-4.732,-4.7361,-4.7346,-4.7494,-4.7452,-4.7457,-4.7462,-4.7514,-4.7527,-4.7539,-4.7386,-4.7385,-4.7384,0,0,-4.6789,-4.6828,-4.6896,-4.6937,-4.6997,-4.7023,-4.7039,-4.7099,-4.712,-4.7202,-4.7204,-4.7259,-4.736,-4.7401,-4.7435,-4.7534,-4.7532,-4.7551,-4.7595,-4.7647,-4.7658,-4.7668,-4.7705,-4.7718,-4.756,-4.756,-4.756,0,-4.6814,-4.6908,-4.6931,-4.6998,-4.7037,-4.7042,-4.7111,-4.7149,-4.7224,-4.7251,-4.7233,-4.7363,-4.7401,-4.7501,-4.7525,-4.7552,-4.7572,-4.7545,-4.7655,-4.7665,-4.7674,-4.771,-4.7724,-4.7562,-4.7562,-4.7562,-4.7561,0,-4.6937,-4.7002,-4.705,-4.7126,-4.717,-4.7237,-4.7271,-4.7312,-4.7322,-4.7349,-4.7434,-4.748,-4.7548,-4.7572,-4.758,-4.7674,-4.7663,-4.765,-4.7618,-4.7689,-4.7724,-4.7737,-4.7565,-4.7564,-4.7564,-4.7563,0,0,-4.7026,-4.7115,-4.7133,-4.7168,-4.7236,-4.7287,-4.7355,-4.7424,-4.746,-4.7512,-4.7571,-4.7658,-4.7647,-4.7686,-4.7699,-4.7744,-4.7823,-4.7726,-4.7728,-4.7744,-4.7931,-4.7942,-4.7957,-4.7822,-4.7824,-4.7827,-4.7927,0,-4.7115,-4.7239,-4.7263,-4.737,-4.7432,-4.7438,-4.7498,-4.7546,-4.7574,-4.763,-4.7659,-4.7722,-4.7702,-4.7726,-4.7771,-4.7804,-4.7861,-4.7797,-4.7877,-4.788,-4.7865,-4.7975,-4.7986,-4.8078,-4.794,-4.7943,-4.7944,0,-4.7236,-4.7294,-4.7408,-4.7471,-4.7498,-4.7551,-4.7617,-4.767,-4.7726,-4.7742,-4.7787,-4.7796,-4.7868,-4.7833,-4.7932,-4.7888,-4.7923,-4.7944,-4.7948,-4.7957,-4.7917,-4.7989,-4.8108,-4.8123,-4.7965,-4.7963,-4.7962,0,-4.7292,-4.7398,-4.7481,-4.7511,-4.7585,-4.7624,-4.7656,-4.7709,-4.775,-4.7807,-4.7834,-4.7897,-4.7933,-4.7982,-4.8008,-4.798,-4.8107,-4.8073,-4.8124,-4.8123,-4.8151,-4.8149,-4.8279,-4.817,-4.817,-4.817,-4.817,0,-4.739,-4.746,-4.7508,-4.7559,-4.7638,-4.7665,-4.7742,-4.7774,-4.7822,-4.7879,-4.7887,-4.7941,-4.7972,-4.803,-4.805,-4.8131,-4.8146,-4.8162,-4.8167,-4.8163,-4.8161,-4.8186,-4.8181,-4.8174,-4.8173,-4.8172,-4.8171,0,-4.7466,-4.7501,-4.7592,-4.7656,-4.7674,-4.773,-4.7784,-4.7834,-4.7862,-4.7935,-4.7954,-4.7998,-4.8067,-4.8098,-4.8182,-4.8196,-4.8289,-4.8288,-4.8271,-4.8273,-4.8323,-4.8319,-4.8475,-4.8498,-4.8372,-4.8373,-4.8374,0,-4.7527,-4.7582,-4.7653,-4.7693,-4.7728,-4.7791,-4.7834,-4.7862,-4.7905,-4.7974,-4.8016,-4.8086,-4.8144,-4.8254,-4.8293,-4.8358,-4.836,-4.841,-4.837,-4.8364,-4.8363,-4.836,-4.8367,-4.8418,-4.8419,-4.842,-4.8421,0,-4.7633,-4.7648,-4.7709,-4.7778,-4.7828,-4.7883,-4.7936,-4.7968,-4.8005,-4.8054,-4.8126,-4.817,-4.8258,-4.8328,-4.8396,-4.8429,-4.8432,-4.8434,-4.8449,-4.8446,-4.8434,-4.8443,-4.8293,-4.843,-4.8429,-4.8428,-4.8428,-4.8428,-4.7705,-4.7755,-4.7814,-4.7882,-4.7926,-4.7976,-4.8027,-4.8063,-4.8124,-4.8199,-4.8212,-4.8289,-4.8345,-4.8437,-4.8473,-4.8534,-4.8521,-4.8543,-4.8549,-4.8555,-4.8559,-4.8424,-4.8546,-4.8545,-4.8545,-4.8545,-4.8545,0,-4.7813,-4.7851,-4.7914,-4.799,-4.8045,-4.8044,-4.8104,-4.8149,-4.8217,-4.827,-4.8327,-4.8411,-4.8479,-4.8525,-4.8594,-4.8634,-4.8637,-4.8651,-4.8649,-4.8657,-4.8564,-4.8545,-4.8648,-4.8648,-4.8647,-4.8647,-4.8647,-4.8647,-4.7875,-4.7961,-4.7983,-4.8091,-4.8129,-4.8206,-4.8241,-4.8287,-4.833,-4.8424,-4.8481,-4.8511,-4.8561,-4.8634,-4.8697,-4.8709,-4.8735,-4.875,-4.8761,-4.8674,-4.8663,-4.8653,-4.8635,-4.8755,-4.8755,-4.8849,-4.885,-4.885]}]]